EW0908 Weather Reports


Display with metric or nautical units.
time (UTC)temp
F
wind
direction
speed
MPH
gust
MPH
rain 1hr
in
rain 24hr
in
rain mn
in
humidity
%
barometer
mb
20181219111816 49 61 5.0 21.0 0.00 0.04 0.04 78 1022.0
20181219111316 49 342 9.0 23.0 0.00 0.04 0.04 77 1022.0
20181219110816 49 336 7.0 17.0 0.00 0.04 0.04 77 1022.0
20181219110317 49 301 11.0 30.0 0.00 0.04 0.04 76 1022.0
20181219105816 49 330 6.0 23.0 0.00 0.04 0.04 76 1022.0
20181219105317 49 339 6.0 17.0 0.00 0.04 0.04 76 1021.7
20181219104816 49 332 7.0 17.0 0.00 0.04 0.04 76 1021.7
20181219104317 49 119 5.0 28.0 0.00 0.04 0.04 76 1022.0
20181219103817 49 235 7.0 15.0 0.00 0.04 0.04 75 1022.0
20181219103316 49 118 7.0 15.0 0.00 0.04 0.04 73 1022.0
20181219102816 49 355 7.0 28.0 0.00 0.04 0.04 73 1021.7
20181219102316 49 323 12.0 28.0 0.00 0.04 0.04 74 1021.7
20181219101816 49 11 18.0 30.0 0.00 0.04 0.04 74 1022.0
20181219101316 49 100 6.0 17.0 0.00 0.04 0.04 73 1022.0
20181219100816 49 245 4.0 17.0 0.00 0.04 0.04 74 1022.0
20181219100316 49 266 6.0 23.0 0.00 0.04 0.04 73 1022.0
20181219095817 49 332 20.0 30.0 0.00 0.04 0.04 74 1022.0
20181219095316 49 94 6.0 15.0 0.00 0.04 0.04 74 1022.0
20181219094816 49 2 8.0 17.0 0.00 0.04 0.04 75 1022.4
20181219094317 49 358 5.0 28.0 0.00 0.04 0.04 75 1022.4
20181219093816 49 11 7.0 23.0 0.00 0.04 0.04 77 1022.4
20181219093316 49 352 14.0 21.0 0.00 0.04 0.04 75 1022.4
20181219092816 49 8 7.0 23.0 0.00 0.04 0.04 76 1022.4
20181219092316 49 322 19.0 25.0 0.00 0.04 0.04 74 1022.4
20181219091824 49 310 5.0 23.0 0.00 0.04 0.04 75 1022.4
20181219091317 49 3 11.0 28.0 0.00 0.04 0.04 75 1022.4
20181219090816 48 286 4.0 15.0 0.00 0.04 0.04 75 1022.4
20181219090316 48 328 6.0 28.0 0.00 0.04 0.04 76 1022.4
20181219085816 48 191 10.0 30.0 0.00 0.04 0.04 75 1022.4
20181219085317 48 355 18.0 36.0 0.00 0.04 0.04 76 1022.4
20181219084816 48 321 12.0 23.0 0.00 0.05 0.04 78 1022.4
20181219084316 48 16 12.0 38.0 0.00 0.05 0.04 78 1022.4
20181219083816 47 10 10.0 30.0 0.00 0.05 0.04 76 1022.4
20181219083316 47 339 17.0 30.0 0.00 0.05 0.04 78 1022.4
20181219082816 47 19 14.0 28.0 0.00 0.05 0.04 77 1022.4
20181219082316 47 31 5.0 25.0 0.00 0.05 0.04 78 1022.4
20181219081816 47 313 21.0 32.0 0.00 0.05 0.04 78 1022.4
20181219081316 48 296 6.0 21.0 0.00 0.05 0.04 80 1022.4
20181219080816 48 350 10.0 30.0 0.00 0.05 0.04 81 1022.4
20181219080317 48 353 12.0 36.0 0.00 0.05 0.04 80 1022.4
20181219075816 48 12 8.0 28.0 0.00 0.05 0.04 80 1022.4
20181219075316 48 346 18.0 32.0 0.00 0.05 0.04 79 1022.4
20181219074816 48 8 15.0 32.0 0.00 0.05 0.04 80 1022.2
20181219074316 48 266 9.0 25.0 0.00 0.05 0.04 79 1022.0
20181219073816 48 11 9.0 28.0 0.00 0.05 0.04 79 1022.0
20181219073316 48 88 5.0 28.0 0.00 0.05 0.04 80 1022.0
20181219072816 48 40 9.0 21.0 0.00 0.05 0.04 80 1021.7
20181219072316 48 46 5.0 17.0 0.00 0.05 0.04 80 1021.7
20181219071815 48 264 6.0 17.0 0.00 0.05 0.04 79 1021.7
20181219071316 48 0 14.0 32.0 0.00 0.05 0.04 78 1021.7
20181219070816 48 66 9.0 23.0 0.00 0.05 0.04 79 1021.3
20181219070316 48 39 11.0 36.0 0.00 0.05 0.04 77 1021.3
20181219065816 48 339 12.0 30.0 0.00 0.05 0.04 77 1021.3
20181219065316 48 19 16.0 32.0 0.00 0.05 0.04 77 1021.3
20181219064816 48 352 15.0 38.0 0.00 0.05 0.04 77 1021.0
20181219064316 48 318 20.0 32.0 0.00 0.05 0.04 76 1021.0
20181219063816 48 345 20.0 30.0 0.00 0.05 0.04 79 1020.9
20181219063316 48 47 15.0 28.0 0.00 0.05 0.04 77 1020.7
20181219062816 48 346 14.0 28.0 0.00 0.05 0.04 76 1020.7
20181219062316 48 337 7.0 25.0 0.00 0.05 0.04 79 1020.7
20181219061816 48 354 10.0 30.0 0.00 0.05 0.04 82 1020.7
20181219061316 48 355 11.0 21.0 0.00 0.05 0.04 78 1020.7
20181219060815 48 346 9.0 30.0 0.00 0.05 0.04 78 1020.7
20181219060316 48 332 14.0 23.0 0.00 0.05 0.04 77 1020.3
20181219055816 49 343 4.0 15.0 0.00 0.05 0.04 78 1020.3
20181219055316 49 327 12.0 25.0 0.00 0.05 0.04 78 1020.3
20181219054816 49 7 11.0 23.0 0.00 0.05 0.04 77 1020.0
20181219054315 49 3 7.0 25.0 0.00 0.05 0.04 79 1020.0
20181219053816 49 311 16.0 23.0 0.00 0.05 0.04 79 1020.0
20181219053316 49 324 6.0 21.0 0.00 0.05 0.04 79 1020.0
20181219052816 49 21 6.0 17.0 0.00 0.05 0.04 78 1020.0
20181219052315 49 178 4.0 15.0 0.00 0.05 0.04 77 1019.7
20181219051815 49 290 2.0 15.0 0.00 0.05 0.04 77 1019.9
20181219051315 49 170 7.0 17.0 0.00 0.05 0.04 76 1019.6
20181219050815 49 12 7.0 23.0 0.00 0.05 0.04 76 1019.6
20181219050316 49 8 7.0 17.0 0.00 0.05 0.04 75 1019.6
20181219045815 49 305 5.0 21.0 0.00 0.05 0.04 77 1019.6
20181219045316 49 320 6.0 25.0 0.00 0.05 0.04 77 1019.6
20181219044815 49 34 11.0 28.0 0.00 0.05 0.04 76 1019.6
20181219044316 49 328 11.0 28.0 0.00 0.05 0.04 78 1019.3
20181219043816 49 351 3.0 10.0 0.00 0.05 0.04 79 1019.3
20181219043316 49 189 5.0 13.0 0.00 0.05 0.04 79 1019.3
20181219042815 49 29 5.0 17.0 0.00 0.05 0.04 78 1019.3
20181219042316 49 175 5.0 17.0 0.00 0.05 0.04 77 1019.3
20181219041815 49 332 5.0 25.0 0.00 0.05 0.04 77 1019.3
20181219041315 49 59 6.0 28.0 0.00 0.05 0.04 76 1019.3
20181219040815 49 325 11.0 23.0 0.00 0.05 0.04 76 1019.0
20181219040315 48 110 4.0 13.0 0.00 0.05 0.04 79 1019.0
20181219035816 48 356 14.0 25.0 0.00 0.05 0.04 78 1019.0
20181219035315 48 329 7.0 21.0 0.00 0.05 0.04 78 1019.0
20181219034815 48 299 4.0 10.0 0.00 0.05 0.04 78 1019.0
20181219034315 48 15 6.0 17.0 0.00 0.05 0.04 77 1019.0
20181219033816 48 336 6.0 17.0 0.00 0.05 0.04 77 1018.6
20181219033315 48 287 8.0 13.0 0.00 0.05 0.04 77 1019.0
20181219032815 48 341 7.0 15.0 0.00 0.05 0.04 79 1018.6
20181219032316 48 353 7.0 13.0 0.00 0.05 0.04 81 1018.6
20181219031815 48 243 3.0 17.0 0.00 0.05 0.04 81 1018.6
20181219031316 48 9 6.0 28.0 0.00 0.05 0.04 80 1018.6
20181219030815 48 349 14.0 28.0 0.00 0.05 0.04 80 1018.6
20181219030316 48 325 6.0 10.0 0.00 0.05 0.04 81 1018.6
20181219025815 48 344 5.0 15.0 0.00 0.05 0.04 80 1018.6
20181219025316 48 327 3.0 15.0 0.00 0.05 0.04 80 1018.6
20181219024815 48 204 7.0 23.0 0.00 0.05 0.04 80 1018.6
20181219024315 48 339 11.0 25.0 0.00 0.05 0.04 82 1018.6
20181219023816 48 334 15.0 25.0 0.00 0.05 0.04 81 1018.6
20181219023315 48 308 7.0 23.0 0.00 0.05 0.04 81 1018.3
20181219022815 48 316 9.0 23.0 0.00 0.05 0.04 82 1018.4
20181219022316 48 2 12.0 23.0 0.00 0.05 0.04 83 1018.6
20181219021816 48 309 18.0 32.0 0.00 0.05 0.04 82 1018.3
20181219021315 48 321 16.0 23.0 0.00 0.05 0.04 82 1018.6
20181219020815 48 332 20.0 30.0 0.00 0.05 0.04 81 1018.3
20181219020315 48 265 12.0 25.0 0.00 0.05 0.04 81 1018.6
20181219015815 48 330 3.0 25.0 0.00 0.05 0.04 82 1018.6
20181219015315 48 2 6.0 13.0 0.00 0.05 0.04 80 1018.6
20181219014815 48 14 9.0 21.0 0.00 0.05 0.04 81 1018.6
20181219014315 48 44 5.0 21.0 0.00 0.05 0.04 80 1018.6
20181219013815 48 335 12.0 25.0 0.00 0.05 0.04 80 1018.6
20181219013315 48 32 7.0 17.0 0.00 0.05 0.04 79 1018.6
20181219012815 48 322 14.0 25.0 0.00 0.05 0.04 81 1018.6
20181219012315 48 221 13.0 30.0 0.00 0.05 0.04 80 1018.6
20181219011815 48 156 9.0 13.0 0.00 0.05 0.04 80 1018.6
20181219011315 48 70 8.0 15.0 0.00 0.05 0.04 80 1018.6
20181219010815 48 330 0.0 15.0 0.00 0.05 0.04 81 1018.6
20181219010315 48 330 10.0 15.0 0.00 0.05 0.04 81 1018.6
20181219005815 48 330 10.0 15.0 0.00 0.05 0.04 81 1018.6
20181219005315 48 327 12.0 21.0 0.00 0.05 0.04 80 1018.6
20181219004815 48 355 15.0 30.0 0.00 0.05 0.04 82 1018.6
20181219004315 48 333 21.0 30.0 0.00 0.05 0.04 80 1018.6
20181219003815 48 333 20.0 30.0 0.00 0.05 0.04 80 1018.6
20181219003314 48 59 3.0 23.0 0.00 0.05 0.04 79 1018.6
20181219002815 48 16 13.0 30.0 0.00 0.05 0.04 79 1018.6
20181219002315 48 317 26.0 30.0 0.00 0.05 0.04 80 1018.6
20181219001815 48 336 21.0 30.0 0.00 0.05 0.04 80 1018.6
20181219001315 48 359 15.0 23.0 0.00 0.05 0.04 82 1018.6
20181219000815 48 34 7.0 10.0 0.00 0.05 0.04 81 1018.6
20181219000315 49 18 0.0 0.0 0.00 0.05 0.04 85 1018.3
20181218235814 49 18 0.0 0.0 0.00 0.05 0.04 85 1018.3
20181218235315 49 18 0.0 0.0 0.00 0.05 0.04 85 1018.3
20181218234815 49 18 0.0 0.0 0.00 0.09 0.04 85 1018.3
20181218234315 49 18 0.0 0.0 0.00 0.13 0.04 85 1018.3
20181218233814 49 18 0.0 0.0 0.00 0.15 0.04 85 1018.3
20181218233315 49 18 0.0 0.0 0.00 0.18 0.04 85 1018.3
20181218232814 49 18 0.0 0.0 0.00 0.22 0.04 85 1018.3
20181218232315 49 18 0.0 0.0 0.00 0.27 0.04 85 1018.3
20181218231815 49 18 0.0 0.0 0.02 0.29 0.04 85 1018.3
20181218231314 49 18 0.0 0.0 0.02 0.34 0.04 85 1018.3
20181218230814 49 18 0.0 0.0 0.03 0.37 0.04 85 1018.3
20181218230315 49 18 0.0 0.0 0.03 0.39 0.04 85 1018.3
20181218225815 49 18 0.0 0.0 0.04 0.41 0.04 85 1018.3
20181218225315 49 18 0.0 0.0 0.04 0.43 0.04 85 1018.3
20181218224815 49 18 0.0 0.0 0.04 0.44 0.04 85 1018.3
20181218224315 49 18 14.0 21.0 0.04 0.46 0.04 85 1018.3
20181218223815 49 18 15.0 21.0 0.04 0.46 0.04 85 1018.3
20181218223314 49 18 15.0 21.0 0.04 0.47 0.04 85 1018.3
20181218222814 49 18 15.0 21.0 0.04 0.47 0.04 85 1018.3
20181218222315 49 23 6.0 21.0 0.04 0.47 0.04 86 1018.3
20181218221815 49 347 14.0 17.0 0.02 0.45 0.02 86 1018.3
20181218221315 49 347 16.0 21.0 0.02 0.45 0.02 86 1018.3
20181218220826 49 346 18.0 21.0 0.01 0.45 0.01 86 1018.3
20181218220314 49 305 15.0 28.0 0.01 0.45 0.01 84 1018.3
20181218215814 49 302 14.0 17.0 0.00 0.44 0.44 81 1018.3
20181218215315 49 302 14.0 17.0 0.00 0.44 0.44 81 1018.3
20181218214814 49 105 6.0 8.0 0.00 0.44 0.44 81 1018.3
20181218214314 49 268 16.0 21.0 0.00 0.44 0.44 82 1018.3
20181218213814 49 280 9.0 21.0 0.00 0.44 0.44 82 1018.3
20181218213315 49 309 12.0 21.0 0.00 0.44 0.44 78 1018.3
20181218212814 49 51 5.0 21.0 0.00 0.44 0.44 80 1018.3
20181218212314 49 41 12.0 28.0 0.00 0.48 0.44 82 1018.3
20181218211814 49 5 20.0 25.0 0.00 0.48 0.44 84 1018.3
20181218211315 49 311 15.0 36.0 0.00 0.48 0.44 85 1018.3
20181218210814 49 296 26.0 36.0 0.00 0.48 0.44 84 1017.9
20181218210315 49 303 28.0 36.0 0.00 0.48 0.44 83 1017.9
20181218205815 49 302 2.0 25.0 0.00 0.48 0.44 84 1017.9
20181218205314 49 319 16.0 21.0 0.00 0.48 0.44 84 1017.9
20181218204815 49 319 16.0 21.0 0.00 0.48 0.44 84 1017.9
20181218204314 49 319 16.0 21.0 0.00 0.48 0.44 84 1017.9
20181218203814 49 319 16.0 21.0 0.00 0.48 0.44 84 1017.9
20181218203314 49 316 16.0 25.0 0.00 0.48 0.44 84 1017.9
20181218202814 49 337 16.0 23.0 0.00 0.48 0.44 85 1017.9
20181218202314 49 301 12.0 28.0 0.00 0.48 0.44 84 1017.9
20181218201814 49 344 20.0 28.0 0.00 0.48 0.44 86 1017.6
20181218201314 49 344 20.0 28.0 0.00 0.48 0.44 86 1017.6
20181218200814 49 344 20.0 28.0 0.00 0.48 0.44 86 1017.6
20181218200315 49 344 20.0 28.0 0.00 0.48 0.44 86 1017.6
20181218195814 49 310 18.0 30.0 0.00 0.48 0.44 84 1016.9
20181218195314 49 334 6.0 30.0 0.00 0.48 0.44 84 1016.9
20181218194815 49 22 0.0 0.0 0.00 0.48 0.44 85 1016.9
20181218193814 49 22 0.0 17.0 0.00 0.48 0.44 85 1016.9
20181218193315 49 22 13.0 17.0 0.00 0.48 0.44 85 1016.9
20181218192814 49 22 13.0 17.0 0.00 0.48 0.44 85 1016.9
20181218192314 49 22 13.0 17.0 0.00 0.48 0.44 85 1016.9
20181218191814 49 22 13.0 23.0 0.00 0.48 0.44 85 1016.9
20181218191314 49 358 18.0 28.0 0.00 0.48 0.44 85 1017.1
20181218190814 49 258 18.0 38.0 0.00 0.48 0.44 85 1016.9
20181218190314 49 323 20.0 38.0 0.00 0.48 0.44 85 1016.9
20181218185814 49 344 21.0 30.0 0.00 0.48 0.44 85 1016.9
20181218185314 49 18 16.0 30.0 0.00 0.48 0.44 86 1016.9
20181218184814 49 293 20.0 30.0 0.00 0.48 0.44 85 1016.9
20181218184314 49 14 15.0 21.0 0.00 0.48 0.44 86 1016.9
20181218183814 49 350 14.0 23.0 0.00 0.48 0.44 86 1016.9
20181218183314 49 320 16.0 25.0 0.00 0.48 0.44 88 1016.6
20181218182813 49 356 17.0 25.0 0.00 0.48 0.44 87 1016.9
20181218182314 49 303 15.0 21.0 0.00 0.48 0.44 88 1016.9
20181218181813 49 320 15.0 30.0 0.00 0.48 0.44 86 1016.6
20181218181313 49 302 14.0 32.0 0.00 0.48 0.44 87 1016.6
20181218180814 49 308 22.0 32.0 0.00 0.48 0.44 86 1016.6
20181218180314 49 337 16.0 25.0 0.00 0.48 0.44 87 1016.6
20181218175814 49 356 17.0 28.0 0.00 0.48 0.44 87 1016.5
20181218175313 49 335 17.0 32.0 0.00 0.48 0.44 85 1016.3
20181218174814 49 1 21.0 36.0 0.00 0.48 0.44 83 1016.3
20181218174314 49 309 20.0 32.0 0.00 0.48 0.44 85 1016.3
20181218173814 49 319 16.0 28.0 0.00 0.48 0.44 85 1016.3
20181218173314 49 286 1.0 17.0 0.00 0.48 0.44 87 1016.3
20181218172814 49 286 14.0 23.0 0.00 0.48 0.44 87 1015.9
20181218172314 49 334 17.0 23.0 0.00 0.48 0.44 87 1015.9
20181218171813 49 280 17.0 25.0 0.00 0.48 0.44 87 1015.9
20181218171314 49 299 17.0 23.0 0.00 0.48 0.44 90 1015.9
20181218170813 49 283 20.0 25.0 0.00 0.48 0.44 89 1015.6
20181218170314 49 310 18.0 28.0 0.00 0.48 0.44 89 1015.6
20181218165814 48 302 20.0 25.0 0.00 0.48 0.44 88 1015.6
20181218165314 48 316 19.0 32.0 0.00 0.48 0.44 88 1015.6
20181218164813 48 317 17.0 30.0 0.00 0.48 0.44 89 1015.6
20181218164313 48 309 19.0 28.0 0.00 0.48 0.44 90 1015.2
20181218163814 48 292 20.0 30.0 0.00 0.48 0.44 90 1015.2
20181218163314 48 347 16.0 30.0 0.00 0.48 0.44 90 1015.2
20181218162813 48 290 21.0 32.0 0.00 0.48 0.44 90 1015.2
20181218162314 48 305 19.0 36.0 0.00 0.48 0.44 89 1014.9
20181218161813 48 285 22.0 36.0 0.00 0.48 0.44 89 1014.9
20181218161313 48 314 19.0 30.0 0.00 0.48 0.44 89 1014.9
20181218160814 48 282 20.0 38.0 0.00 0.48 0.44 89 1014.9
20181218160313 48 282 18.0 38.0 0.00 0.48 0.44 89 1014.8
20181218155814 48 308 18.0 38.0 0.00 0.48 0.44 89 1014.8
20181218155313 47 307 20.0 36.0 0.00 0.48 0.44 90 1014.6
20181218154813 47 311 18.0 38.0 0.00 0.48 0.44 90 1014.6
20181218154313 47 301 23.0 40.0 0.00 0.48 0.44 90 1014.6
20181218153814 47 307 20.0 32.0 0.00 0.48 0.44 90 1014.6
20181218153313 47 283 20.0 38.0 0.00 0.48 0.44 90 1014.6
20181218152813 47 310 24.0 43.0 0.00 0.48 0.44 90 1014.6
20181218152313 47 293 21.0 36.0 0.00 0.48 0.44 90 1014.2
20181218151814 47 328 20.0 40.0 0.00 0.48 0.44 89 1014.2
20181218151313 47 290 25.0 43.0 0.00 0.48 0.44 90 1014.2
20181218150813 48 301 23.0 38.0 0.00 0.48 0.44 89 1014.2
20181218150313 48 281 19.0 38.0 0.00 0.48 0.44 89 1014.2
20181218145813 48 271 21.0 40.0 0.00 0.48 0.44 89 1014.2
20181218145313 48 305 20.0 32.0 0.00 0.48 0.44 89 1014.2
20181218144813 48 310 21.0 30.0 0.00 0.48 0.44 88 1014.2
20181218144313 48 313 19.0 36.0 0.00 0.48 0.44 88 1014.1
20181218143813 47 315 20.0 30.0 0.00 0.48 0.44 88 1013.9
20181218143313 47 297 25.0 40.0 0.00 0.48 0.44 88 1013.9
20181218142814 47 292 20.0 36.0 0.00 0.48 0.44 89 1013.9
20181218142313 47 308 18.0 40.0 0.00 0.48 0.44 89 1013.9
20181218141813 47 297 21.0 30.0 0.00 0.48 0.44 90 1013.9
20181218141313 47 302 17.0 28.0 0.00 0.48 0.44 90 1013.9
20181218140813 47 314 17.0 36.0 0.00 0.48 0.44 89 1013.9
20181218140313 47 302 21.0 36.0 0.00 0.48 0.44 89 1013.9
20181218135814 47 290 18.0 28.0 0.00 0.48 0.44 89 1013.9
20181218135313 47 327 20.0 32.0 0.00 0.48 0.44 89 1013.7
20181218134813 47 296 21.0 36.0 0.00 0.48 0.44 88 1013.5
20181218134313 47 314 19.0 36.0 0.00 0.48 0.44 89 1013.5
20181218133813 47 329 17.0 36.0 0.00 0.48 0.44 88 1013.5
20181218133313 47 302 23.0 36.0 0.00 0.48 0.44 88 1013.5
20181218132813 47 290 17.0 25.0 0.00 0.48 0.44 88 1013.9
20181218132313 47 308 21.0 32.0 0.00 0.48 0.44 87 1013.5
20181218131813 47 280 18.0 30.0 0.00 0.48 0.44 88 1013.5
20181218131313 47 293 24.0 36.0 0.00 0.48 0.44 88 1013.5
20181218130813 47 291 19.0 32.0 0.00 0.48 0.44 87 1013.5
20181218130313 47 310 22.0 38.0 0.00 0.48 0.44 88 1013.5
20181218125813 47 297 20.0 28.0 0.00 0.48 0.44 88 1013.5
20181218125313 47 303 18.0 30.0 0.00 0.48 0.44 88 1013.5
20181218124813 47 279 20.0 30.0 0.00 0.48 0.44 88 1013.5
20181218124313 47 319 17.0 30.0 0.00 0.48 0.44 88 1013.5
20181218123813 47 299 18.0 32.0 0.00 0.48 0.44 88 1013.5
20181218123313 47 319 16.0 28.0 0.00 0.48 0.44 89 1013.5
20181218122812 47 283 22.0 32.0 0.00 0.48 0.44 89 1013.5
20181218122312 47 272 18.0 38.0 0.00 0.48 0.44 90 1013.5
20181218121813 47 288 18.0 28.0 0.00 0.48 0.44 90 1013.5
20181218121313 47 307 16.0 30.0 0.00 0.48 0.44 90 1013.5
20181218120813 47 301 15.0 32.0 0.00 0.48 0.44 90 1013.5
20181218120313 47 307 17.0 32.0 0.00 0.48 0.44 90 1013.5
20181218115812 47 301 17.0 30.0 0.00 0.48 0.44 90 1013.5
20181218115312 47 288 18.0 30.0 0.00 0.48 0.44 89 1013.5
20181218114813 47 313 12.0 25.0 0.00 0.48 0.44 90 1013.7
20181218114313 47 306 21.0 32.0 0.00 0.48 0.44 89 1013.7
20181218113813 47 297 17.0 30.0 0.00 0.48 0.44 89 1013.5
20181218113313 47 298 16.0 28.0 0.00 0.48 0.44 89 1013.9
20181218112812 47 301 20.0 32.0 0.00 0.48 0.44 89 1013.7
20181218112312 47 322 16.0 28.0 0.00 0.48 0.44 89 1013.9